Weather History for KSJT - October, 2012

Change the Weather History Date:

Tuesday, October 16, 2012

  Actual Average Record
Temperature  
Mean Temperature 70 °F 66 °F  
Max Temperature 77 °F 79 °F 95 °F (1917)
Min Temperature 63 °F 54 °F 32 °F (1940)
Degree Days  
Heating Degree Days 0 2  
Month to date heating degree days 40 24  
Since 1 July heating degree days 42 33  
Cooling Degree Days 5 4  
Month to date cooling degree days 73 81  
Year to date cooling degree days 3117 2446  
Growing Degree Days 20 (Base 50)    
Moisture  
Dew Point 57 °F    
Average Humidity 68    
Maximum Humidity 78    
Minimum Humidity 58    
Precipitation  
Precipitation 0.00 in 0.10 in 2.39 in (1960)
Month to date precipitation 0.49 1.45  
Year to date precipitation 21.78 17.98  
Snow  
Snow 0.00 in 0.00 in 0.00 in (2002)
Month to date snowfall T 0.0  
Since 1 July snowfall T 0.0  
Snow Depth 0.00 in    
Sea Level Pressure  
Sea Level Pressure 29.80 in    
Wind  
Wind Speed 12 mph (SSW)    
Max Wind Speed 22 mph    
Max Gust Speed 28 mph    
Visibility 10 miles    
Events      
T = Trace of Precipitation, MM = Missing Value Source: NWS Daily Summary

Daily Weather History Graph

Daily Weather History Graph

Search for Another Location

Airport or City:

Trip Planner

Search our weather history database for the weather conditions in past years. The results will help you decide how hot, cold, wet, or windy it might be!

Date:

Astronomy

Oct. 16, 2012 Rise Set
Actual Time 7:45 AM CDT 7:08 PM CDT
Civil Twilight 7:21 AM CDT 7:32 PM CDT
Nautical Twilight 6:53 AM CDT 8:01 PM CDT
Astronomical Twilight 6:25 AM CDT 8:29 PM CDT
Moon 9:02 AM CDT (10/16) 8:03 PM CDT (10/16)
Length of Visible Light 12h 11m
Length of Day
11h 22m
New Moon, 2% of the Moon is Illuminated
Oct 16
New Moon
Oct 21
First Quarter
Oct 29
Full
Nov 6
Last Quarter
Nov 13
New

Hourly Weather History & Observations

Time (CDT) Temp. Dew Point Humidity Pressure Visibility Wind Dir Wind Speed Gust Speed Precip Events Conditions
12:51 AM 64.9 °F 53.1 °F 65% 29.93 in 10.0 mi South 6.9 mph - N/A   Clear
1:51 AM 64.9 °F 53.1 °F 65% 29.90 in 10.0 mi South 6.9 mph - N/A   Clear
2:51 AM 64.9 °F 53.1 °F 65% 29.89 in 10.0 mi South 5.8 mph - N/A   Clear
3:51 AM 64.0 °F 52.0 °F 65% 29.88 in 10.0 mi SSW 5.8 mph - N/A   Clear
4:51 AM 64.0 °F 53.1 °F 67% 29.86 in 10.0 mi SSW 10.4 mph - N/A   Partly Cloudy
5:51 AM 64.9 °F 52.0 °F 63% 29.85 in 10.0 mi SSW 12.7 mph - N/A   Clear
6:51 AM 66.0 °F 52.0 °F 60% 29.85 in 10.0 mi SSW 11.5 mph - N/A   Clear
7:51 AM 66.0 °F 52.0 °F 60% 29.86 in 10.0 mi SW 11.5 mph - N/A   Clear
9:51 AM 68.0 °F 54.0 °F 61% 29.86 in 10.0 mi SSW 12.7 mph - N/A   Clear
10:51 AM 70.0 °F 55.0 °F 59% 29.84 in 10.0 mi SSW 17.3 mph 26.5 mph N/A   Clear
11:51 AM 72.0 °F 57.0 °F 59% 29.86 in 10.0 mi WSW 11.5 mph - N/A   Clear
12:51 PM 73.9 °F 60.1 °F 62% 29.83 in 10.0 mi SSW 19.6 mph 26.5 mph N/A   Partly Cloudy
2:51 PM 75.9 °F 62.1 °F 62% 29.76 in 10.0 mi SSW 13.8 mph - N/A   Clear
3:51 PM 77.0 °F 62.1 °F 60% 29.74 in 10.0 mi SSW 15.0 mph 20.7 mph N/A   Clear
4:51 PM 75.9 °F 62.1 °F 62% 29.72 in 10.0 mi SSW 12.7 mph - N/A   Clear
5:51 PM 75.0 °F 61.0 °F 62% 29.72 in 10.0 mi SSW 10.4 mph - N/A   Clear
6:51 PM 73.0 °F 61.0 °F 66% 29.70 in 10.0 mi SSW 10.4 mph - N/A   Clear
7:51 PM 71.1 °F 60.1 °F 68% 29.70 in 10.0 mi South 8.1 mph - N/A   Clear
8:51 PM 71.1 °F 60.1 °F 68% 29.70 in 10.0 mi South 11.5 mph - N/A   Clear
9:51 PM 69.1 °F 60.1 °F 73% 29.70 in 10.0 mi South 11.5 mph - N/A   Clear
10:51 PM 70.0 °F 62.1 °F 76% 29.71 in 10.0 mi South 10.4 mph - N/A   Clear
11:51 PM 70.0 °F 63.0 °F 78% 29.70 in 10.0 mi SSW 10.4 mph - N/A   Clear